Theta_e
306 306 306 306 306 306 307 307 307 307 307 307 307 307 308 307 307 308 308 309 310 310 309 308 309 309 310 310 308 308 309 311 316 317 316 318 319 316 312 312 315 315 311 311 312 311 313 314 320 323 323 323 322 324 323 322 325 328 330 330 329 331 331 333 334 333 333 329 325 323 323 322 322 321 320 320 320 321 322 321 323 326 328 332 336 338 339 338
306 306 306 306 306 306 307 307 307 307 307 308 307 307 307 307 307 307 307 308 309 310 310 309 308 309 310 309 309 308 309 313 316 316 316 319 318 314 312 312 313 316 315 314 314 313 312 315 320 321 322 323 322 323 323 323 324 325 328 328 328 330 330 332 332 332 332 331 328 326 326 325 324 323 321 320 321 320 321 323 323 327 330 332 336 338 338 338
305 305 305 306 306 306 306 306 307 307 307 307 307 307 307 307 307 307 307 308 308 309 310 310 308 309 309 309 308 308 311 315 316 316 318 318 316 313 312 312 312 315 318 318 315 315 314 315 318 319 323 325 322 322 323 324 324 324 326 326 327 328 328 329 329 331 332 331 330 330 327 326 327 325 322 322 323 321 321 323 323 325 330 333 335 337 337 337
305 305 305 305 305 305 306 306 306 306 306 307 307 307 307 308 308 307 307 307 308 309 309 309 309 309 309 309 307 309 313 315 315 317 318 316 314 314 312 311 311 316 320 319 316 315 315 315 317 319 323 325 323 321 322 323 323 323 324 324 325 325 326 327 328 330 331 331 331 330 328 327 328 327 324 324 325 324 323 323 324 322 327 332 334 336 335 336
305 305 305 305 305 305 305 305 305 306 306 306 306 307 307 307 307 307 307 308 308 308 309 309 310 310 309 308 307 310 315 314 315 320 317 314 315 315 312 308 311 317 320 319 316 314 314 315 318 321 324 325 324 322 321 322 322 323 323 322 322 323 323 325 328 330 330 330 330 330 329 328 327 326 326 325 326 326 323 323 325 322 324 330 333 335 335 335
305 305 305 305 305 305 305 304 305 305 305 306 306 306 307 307 307 307 307 307 307 308 308 309 310 310 308 307 308 312 314 313 316 320 316 314 316 315 312 310 312 317 319 319 318 315 315 316 319 321 322 323 323 322 320 320 322 323 323 322 322 322 322 323 326 329 330 329 330 330 329 330 327 325 326 326 326 325 324 324 324 324 327 330 332 335 335 336
305 305 305 305 305 305 305 304 304 304 305 305 306 306 306 306 307 307 307 307 307 308 308 308 309 310 308 307 310 312 313 312 314 316 315 315 315 313 312 313 313 315 317 319 318 316 316 317 319 320 320 320 320 319 319 319 321 322 322 322 321 321 322 324 324 326 328 328 329 329 329 329 327 326 327 326 326 325 325 325 324 325 330 332 333 334 334 335
305 305 305 305 305 305 305 305 305 304 304 305 306 306 306 306 306 306 307 307 307 307 308 308 309 309 308 309 311 310 311 311 311 314 315 315 314 312 312 314 315 315 316 317 319 318 316 316 319 320 320 320 320 319 319 320 321 321 321 320 321 322 321 323 323 324 326 327 328 327 328 328 327 327 328 328 326 324 325 324 323 324 329 333 334 334 334 335
306 306 306 306 306 306 305 305 305 305 305 305 305 306 306 306 306 306 306 306 306 307 307 308 308 308 307 310 310 309 310 311 311 313 313 313 313 312 313 314 314 315 316 316 319 319 317 316 317 320 321 322 321 321 320 321 322 321 321 321 322 322 320 321 323 324 325 325 327 327 328 328 327 328 329 328 326 325 325 324 324 324 327 331 333 334 333 334
306 306 306 306 306 306 306 306 305 305 305 305 305 306 306 306 306 306 305 306 306 306 306 307 307 307 307 310 309 308 310 311 312 312 312 312 313 313 313 313 313 315 315 316 317 319 318 318 319 320 321 321 321 322 322 322 323 321 322 321 321 322 320 320 321 323 324 324 325 326 327 326 327 328 329 329 327 327 327 325 324 324 325 326 329 332 332 333
304 305 305 305 305 306 306 306 306 306 306 305 305 305 306 306 305 305 305 305 305 306 306 306 307 307 309 309 309 309 310 310 311 312 312 312 312 313 313 312 312 313 315 316 316 318 319 320 321 321 321 320 320 321 322 322 321 321 321 321 321 321 321 321 321 323 324 324 324 324 325 326 327 328 329 329 328 328 328 326 324 324 325 325 326 329 332 332
304 304 305 305 305 305 305 305 306 306 306 306 306 305 306 305 306 305 305 305 305 305 305 305 305 307 309 308 307 309 308 308 309 310 310 310 311 312 312 312 312 313 314 315 315 316 317 319 321 322 320 318 319 319 320 320 320 320 321 322 322 321 322 322 322 323 323 323 323 323 325 326 327 328 328 328 328 328 328 326 325 324 325 325 325 327 331 331
304 304 304 305 305 304 304 304 305 305 306 306 306 306 306 306 306 306 306 305 305 304 305 305 305 306 308 307 306 307 307 308 308 309 310 310 311 311 312 312 312 313 313 314 315 316 317 318 321 322 320 318 319 319 320 321 320 321 320 321 321 322 322 321 320 321 321 322 321 323 324 323 325 326 326 327 327 328 328 327 326 325 325 326 326 326 329 332
303 303 303 304 304 304 303 303 303 304 305 306 306 306 306 306 306 306 305 304 304 305 305 304 304 307 308 306 305 306 307 307 308 309 309 309 310 310 311 312 312 312 313 313 314 316 317 318 321 322 322 320 320 319 321 321 321 322 321 321 322 322 321 320 320 320 319 321 321 323 322 321 322 324 325 326 327 327 328 329 328 327 325 326 327 326 329 332
301 302 303 303 304 303 303 302 302 303 304 305 305 305 305 305 306 306 305 304 304 304 304 304 305 307 306 305 306 306 306 306 307 308 307 307 308 309 310 312 312 312 313 313 315 317 317 318 321 322 322 320 319 320 321 321 321 321 323 324 323 323 321 318 320 321 320 320 320 322 322 321 321 322 324 325 326 327 327 328 329 328 327 326 326 326 328 331
301 302 302 303 303 303 303 302 302 302 303 304 304 304 304 305 305 305 305 304 303 303 305 306 307 307 305 305 307 308 307 308 308 308 308 308 307 307 308 310 310 311 312 312 314 316 316 317 320 322 322 321 320 320 320 321 321 321 323 323 322 323 321 319 320 320 321 321 320 322 322 322 321 321 321 322 324 326 327 328 328 329 329 327 326 326 328 330
301 301 302 303 303 303 302 302 302 302 302 303 303 303 304 305 305 305 305 304 304 305 306 307 306 306 306 305 306 307 309 309 309 309 309 309 309 308 308 309 309 311 312 312 312 314 316 317 319 320 321 322 321 320 321 320 320 321 323 322 321 320 320 321 322 321 322 321 320 321 321 321 321 320 320 320 321 323 326 328 327 329 329 329 328 326 328 329
300 301 301 302 303 303 302 302 302 302 302 303 303 304 305 305 305 305 305 306 306 306 307 307 306 305 306 306 306 307 309 308 309 309 308 309 310 310 310 310 310 311 312 312 313 315 316 316 317 318 320 322 322 321 321 320 317 319 322 322 322 320 319 320 320 321 322 321 320 320 321 322 322 321 320 319 321 321 323 326 327 328 329 330 329 327 328 328
301 301 301 302 302 302 302 303 303 303 303 302 303 305 306 306 306 306 307 307 306 306 306 307 307 305 306 307 307 308 308 307 308 308 308 309 310 310 311 312 312 312 313 313 314 315 316 316 316 316 317 320 321 321 321 319 316 316 318 320 322 321 321 319 318 320 323 323 321 321 321 322 323 323 321 319 319 320 321 324 327 329 329 330 330 329 328 329
302 302 302 302 303 303 303 303 303 303 304 303 304 306 306 306 306 306 306 306 306 306 305 306 306 305 306 307 307 308 308 308 309 309 308 309 310 310 311 312 313 313 313 313 314 315 316 316 315 315 315 316 318 319 319 318 317 317 317 319 320 321 321 320 319 321 323 324 323 323 323 322 322 322 322 321 319 319 320 325 329 330 330 329 330 332 331 331
304 303 304 304 303 303 303 303 303 304 304 304 305 306 305 305 305 305 305 305 305 306 306 306 306 305 305 305 306 306 307 308 308 308 309 309 309 309 310 311 312 312 312 312 313 315 317 316 315 314 313 313 314 316 318 319 319 318 318 319 320 320 320 319 319 321 322 324 324 323 323 322 321 320 320 321 321 319 319 325 329 328 328 328 328 331 332 333
304 304 304 304 304 304 304 304 304 304 304 305 305 306 305 304 305 305 304 304 305 305 306 306 306 306 306 305 305 305 306 307 306 306 308 309 308 309 310 311 311 310 311 312 312 315 317 317 315 313 313 312 312 313 315 318 319 319 319 319 320 319 318 318 317 318 319 323 324 323 323 322 321 320 320 320 320 320 320 322 326 326 326 325 325 327 329 332
304 304 304 304 304 304 304 304 304 304 304 305 306 305 304 304 305 305 305 305 305 305 305 306 306 306 307 306 305 305 306 306 305 305 306 309 309 309 309 310 311 310 310 312 312 313 315 316 314 313 312 312 313 313 313 314 317 319 320 320 320 319 319 319 317 316 316 320 322 322 323 321 320 320 319 319 320 319 321 321 322 323 324 323 323 325 326 329
303 304 304 304 303 303 304 304 303 304 304 305 305 305 304 304 305 305 305 305 305 305 305 305 306 306 307 307 306 306 307 306 305 304 306 309 308 308 309 309 311 311 311 311 312 312 313 313 313 313 313 313 313 314 314 314 315 318 320 320 320 319 319 318 317 316 316 318 320 320 322 321 320 320 319 319 320 319 320 321 320 321 323 323 323 326 327 327
303 303 303 303 303 303 304 303 303 304 305 304 304 304 304 304 305 305 305 304 305 305 305 305 305 306 306 306 306 306 306 306 306 305 306 309 308 308 309 309 310 311 311 311 312 312 312 311 311 312 313 314 314 313 314 316 315 317 319 319 319 319 319 318 318 318 318 319 319 319 322 322 320 320 319 318 320 319 319 320 321 321 322 323 323 324 327 329
301 302 303 302 302 303 303 303 303 304 304 303 303 304 304 305 305 305 305 305 305 305 305 305 306 305 305 306 306 306 305 306 307 306 305 307 308 307 308 308 309 310 311 311 313 313 312 311 312 312 313 315 315 313 314 315 316 317 317 318 319 319 320 320 320 321 321 321 319 318 321 321 320 319 319 319 319 319 319 320 321 321 321 322 322 321 324 327
300 301 302 302 302 303 303 304 303 303 303 302 303 304 304 304 304 304 304 304 304 305 306 306 306 305 304 305 306 305 306 307 306 307 306 306 307 307 307 308 310 310 310 311 313 313 312 313 313 313 314 314 314 314 313 314 315 316 316 319 320 319 321 322 322 323 322 321 320 319 320 321 320 319 319 319 319 318 319 320 321 321 320 321 322 321 322 325
300 300 301 301 302 303 303 304 303 304 303 302 303 303 303 304 304 303 303 302 300 302 306 306 306 304 305 306 306 306 307 307 306 307 307 306 307 307 307 307 309 310 309 311 312 312 312 313 314 314 314 314 313 313 314 314 314 315 316 320 320 319 321 322 323 324 322 324 324 322 321 322 320 318 318 319 319 318 319 319 320 320 320 321 322 322 321 323
300 300 300 300 301 302 303 303 303 304 303 303 303 303 303 303 303 303 302 300 299 302 305 306 306 305 306 307 307 306 307 306 306 307 307 307 307 307 308 308 308 309 309 310 311 311 311 313 314 314 314 314 313 312 313 314 314 316 318 319 319 320 321 322 324 324 323 324 325 322 321 322 321 318 317 319 318 317 317 317 318 320 321 322 323 323 322 321
300 300 300 300 302 302 303 303 303 303 302 303 303 303 303 303 303 302 300 298 300 303 305 306 306 306 307 307 307 307 307 306 307 307 307 308 308 307 308 308 308 309 309 309 310 310 310 311 312 312 313 313 313 313 314 314 314 316 318 318 320 321 320 321 324 324 324 325 324 321 320 322 322 320 317 318 318 317 317 316 316 317 321 323 323 323 322 320
301 301 301 301 302 303 303 303 302 302 302 303 303 303 302 303 303 302 300 298 300 304 305 305 306 307 307 306 306 306 307 307 306 307 308 308 308 308 307 307 308 308 308 308 308 308 309 310 311 311 312 312 314 314 314 315 315 315 315 316 319 321 320 322 323 323 324 324 322 320 321 322 323 321 318 318 318 316 317 317 316 317 319 321 323 323 322 321
301 302 301 301 302 302 302 302 301 301 302 302 303 302 302 302 302 302 301 299 301 304 305 305 305 306 306 306 306 306 306 306 306 307 307 307 308 308 308 307 307 308 308 307 307 307 309 309 310 311 311 312 314 314 314 315 316 315 313 315 318 320 320 321 321 322 323 321 319 319 322 323 322 320 318 318 317 317 317 317 318 320 320 321 324 325 324 324
301 301 301 301 301 301 301 302 301 301 302 302 302 302 302 302 301 302 301 300 302 304 305 305 305 305 305 305 305 306 306 306 306 306 306 307 308 308 308 308 308 307 308 308 307 308 309 309 310 311 312 312 314 314 314 314 314 313 312 314 317 318 318 319 319 320 320 318 318 319 321 323 322 318 318 318 317 317 317 317 318 320 322 321 322 324 325 327
301 301 301 300 300 300 301 301 301 302 302 302 301 302 302 301 300 302 301 300 302 304 304 305 305 304 304 305 305 306 306 306 307 306 306 307 307 307 308 308 309 308 308 308 307 308 309 309 309 311 312 313 313 313 313 314 314 314 313 314 316 316 316 317 317 319 320 320 320 320 322 323 321 318 319 318 318 318 317 316 318 320 322 323 323 323 325 326
302 301 301 301 300 300 300 301 302 302 302 302 301 302 302 301 301 302 302 301 302 303 303 304 304 304 304 304 305 306 306 306 306 306 307 307 307 308 307 307 308 308 308 307 307 307 307 307 307 309 311 312 313 313 312 313 314 315 314 315 315 314 314 315 316 319 322 323 322 321 323 324 319 317 318 318 319 319 318 318 317 318 319 321 322 321 321 322
302 301 301 301 300 300 300 301 302 301 301 302 302 302 301 302 302 302 302 302 301 302 303 303 304 304 304 303 304 305 305 305 306 306 307 307 307 308 307 307 307 308 308 308 307 307 308 308 307 308 309 310 312 313 313 313 313 314 316 315 315 314 314 315 315 315 317 319 319 319 322 322 319 319 319 318 319 319 320 321 318 318 319 319 320 320 320 322
302 301 301 301 300 300 300 301 302 302 302 302 302 301 301 301 302 302 302 302 302 302 303 302 303 303 303 303 303 304 304 304 305 306 306 306 307 308 308 307 308 309 308 308 308 307 307 308 307 307 308 309 312 314 313 314 314 314 315 315 315 315 314 314 314 314 314 314 314 315 319 320 320 322 321 319 319 318 319 321 320 320 322 321 321 322 323 324
302 301 301 301 300 300 300 302 302 302 302 302 302 302 301 301 301 301 302 302 302 302 302 302 302 302 302 302 303 303 304 304 304 305 306 305 305 307 308 307 308 309 308 308 308 308 307 306 307 309 309 309 312 313 312 313 314 313 314 315 317 317 316 315 314 314 314 312 311 311 314 316 318 319 319 319 319 318 319 319 320 320 320 321 322 323 326 327
303 301 301 301 300 300 301 302 302 302 302 302 302 302 301 301 301 301 301 302 302 302 302 302 302 302 302 302 302 302 303 304 304 305 305 305 305 307 307 307 306 307 307 307 307 308 307 307 308 310 310 310 311 312 312 312 314 313 313 314 315 316 316 316 315 314 313 312 311 311 311 312 314 314 315 315 315 316 317 318 320 320 320 322 323 326 327 328
302 302 301 300 301 300 301 301 302 303 302 301 302 302 301 301 302 301 302 302 302 302 302 302 302 302 302 302 302 302 302 303 303 304 305 305 305 305 306 306 306 306 307 308 308 308 308 307 307 308 309 309 309 312 312 311 312 314 313 313 314 315 315 315 314 314 314 313 311 310 310 310 311 313 313 313 314 316 318 320 322 322 323 325 325 323 323 324
302 302 301 301 300 300 301 301 302 303 302 301 301 301 301 302 302 302 302 302 302 302 301 301 301 302 302 302 302 302 302 302 303 304 304 304 305 304 305 308 308 307 307 307 307 308 308 307 307 307 307 307 307 309 311 311 312 315 315 314 314 314 315 316 315 314 315 316 314 312 312 311 312 317 317 317 319 320 321 324 324 322 323 324 323 321 323 324
301 301 301 300 300 301 302 302 302 301 302 301 300 300 301 301 301 301 301 301 301 302 301 301 301 301 301 302 302 302 302 302 302 303 304 304 304 304 305 308 309 307 306 306 306 307 307 307 307 307 306 305 305 306 310 312 313 314 314 314 314 313 313 314 315 314 314 315 315 315 315 315 316 322 323 322 322 322 322 323 323 322 322 322 322 322 324 324
301 300 300 299 299 301 302 302 302 301 301 300 300 300 299 299 300 301 301 301 300 301 301 302 301 301 301 301 301 301 302 302 302 303 303 303 303 305 306 307 308 307 306 305 305 306 306 306 306 306 305 305 306 307 310 311 311 311 312 313 314 312 310 311 312 313 313 314 314 316 316 314 313 318 322 323 322 322 323 322 322 323 322 320 320 322 323 323
300 300 300 300 300 301 301 301 301 301 301 300 300 300 299 299 300 300 300 301 300 300 300 301 301 301 301 302 302 301 302 302 302 302 303 303 303 307 309 307 308 307 305 305 305 304 305 306 306 305 304 304 306 308 311 311 310 310 311 311 312 311 311 311 311 312 313 312 313 315 315 314 314 316 319 322 322 320 320 320 320 322 322 320 320 321 323 322
300 300 300 300 300 300 300 299 300 300 300 300 300 300 300 300 300 300 300 300 300 300 300 300 300 301 301 302 302 302 302 302 302 302 302 303 303 305 307 307 308 307 305 306 307 305 305 306 305 305 304 304 304 306 309 309 308 308 308 309 310 310 311 311 311 313 313 312 312 313 313 313 313 314 315 318 321 319 319 320 320 321 323 322 321 322 324 324
300 300 300 300 300 300 300 299 299 300 300 299 300 300 299 299 300 300 300 300 301 301 300 300 301 301 301 301 301 301 302 302 302 302 302 303 302 302 304 306 307 306 305 308 308 306 306 306 305 305 304 304 303 304 305 306 305 305 306 307 308 309 310 310 311 312 313 313 313 312 312 312 311 310 310 312 314 315 317 319 320 322 325 326 324 324 325 325
300 300 299 299 300 301 301 299 299 299 299 299 299 299 299 299 300 300 300 301 301 301 301 301 302 301 301 301 301 301 302 302 303 303 302 303 303 302 304 305 305 305 306 307 307 307 306 305 305 305 305 304 304 304 303 304 305 305 306 307 307 308 309 309 311 311 312 313 313 312 312 313 312 310 310 309 309 310 310 312 314 317 321 324 325 325 325 324
299 299 297 297 299 300 300 298 298 299 299 299 298 299 299 299 300 301 301 301 301 301 301 302 302 302 301 302 302 302 302 302 302 302 302 303 303 303 304 304 304 305 306 306 307 306 306 305 304 305 305 304 304 305 305 305 305 306 306 307 307 307 307 308 309 309 310 312 312 311 312 313 312 311 311 310 309 309 309 309 310 310 312 318 321 321 322 324
299 299 298 297 298 299 298 298 297 298 299 299 299 299 299 300 301 301 301 301 301 301 301 301 302 302 302 302 302 302 302 302 302 302 302 303 303 303 304 304 305 306 306 306 307 305 305 305 304 305 305 305 305 305 305 305 305 305 305 306 306 307 307 308 308 308 309 310 310 311 312 312 311 311 310 309 309 309 309 309 310 309 312 319 323 322 322 323
297 297 297 297 298 299 298 298 298 299 299 299 299 300 300 301 301 301 301 301 301 301 301 301 302 302 302 302 303 302 302 302 303 303 302 303 303 303 303 304 305 305 305 306 306 304 304 305 304 305 305 304 304 304 305 306 306 306 306 306 307 307 308 308 308 308 309 309 309 310 311 311 310 310 310 309 309 309 309 309 309 309 312 319 322 323 323 321
296 296 296 296 298 299 298 298 299 299 300 300 300 300 300 301 301 300 300 300 301 301 301 302 302 302 302 302 302 303 302 302 303 303 303 303 303 303 303 303 304 304 304 305 305 303 303 305 304 304 305 304 303 304 306 307 306 306 307 307 307 307 308 308 308 308 309 309 310 311 311 311 310 310 310 309 309 309 309 309 309 309 310 312 314 316 319 319
294 295 296 296 297 297 298 299 299 299 300 300 301 300 300 300 300 299 299 300 301 301 301 302 302 302 301 301 302 302 302 302 302 302 302 302 302 302 302 303 303 304 303 304 305 304 304 304 304 304 304 304 303 303 305 306 306 305 305 305 306 307 307 308 308 308 309 309 310 311 311 311 310 310 309 309 309 309 309 309 309 309 309 309 310 312 316 318
Wind_Speed
14 14 14 14 14 15 15 15 14 15 14 14 13 12 13 13 13 13 14 15 14 14 14 15 16 15 17 16 16 17 19 21 18 17 14 7 5 6 7 14 16 14 10 8 8 8 8 9 8 8 6 5 4 3 6 6 3 3 2 4 5 5 6 6 7 4 1 2 3 4 2 3 3 4 2 2 2 2 3 4 4 5 7 9 13 19 21 22
15 14 14 14 14 15 15 15 15 15 14 14 14 13 13 13 13 13 14 14 14 14 14 14 15 15 16 16 16 15 18 19 18 19 15 8 5 2 9 15 17 14 9 5 6 5 4 5 7 10 6 3 3 4 5 4 4 4 3 4 6 5 7 8 9 5 1 3 1 4 1 3 1 3 3 2 4 5 5 4 6 6 8 10 13 19 21 21
15 15 15 14 14 15 15 15 15 15 15 14 14 13 13 13 13 14 14 14 14 14 14 14 14 15 15 16 15 14 17 17 17 12 7 8 6 3 13 16 14 12 7 6 5 4 4 5 5 6 4 3 3 5 5 3 4 5 4 5 5 6 9 10 12 7 1 3 4 0 3 1 5 1 3 2 4 6 7 5 6 7 8 10 11 16 19 19
15 15 15 15 14 14 14 15 15 15 15 15 14 14 13 13 13 13 13 14 14 14 14 13 14 14 14 16 14 12 14 13 9 1 8 9 5 7 17 17 13 9 6 5 5 5 5 5 5 4 3 3 4 5 6 5 3 4 6 7 6 8 9 9 12 8 4 5 5 2 3 1 4 2 2 2 4 4 6 8 9 10 11 13 11 13 17 17
14 15 15 15 15 15 14 14 14 15 15 15 14 14 14 13 13 13 13 13 13 14 14 13 14 14 14 14 12 11 10 7 1 6 8 8 3 13 18 17 11 7 5 4 4 4 5 6 5 3 2 2 4 4 6 7 5 4 7 8 8 10 9 9 9 4 4 5 1 2 2 2 1 1 4 3 5 3 1 3 7 9 11 16 15 13 15 14
14 15 15 15 15 15 15 15 14 14 14 15 15 14 14 13 14 14 14 13 13 13 13 13 14 14 14 13 11 10 7 3 2 5 4 7 6 18 17 15 10 5 5 4 2 3 4 5 4 3 3 2 4 5 6 8 7 6 7 8 9 11 10 10 8 3 5 4 1 3 5 3 2 2 4 5 7 4 3 5 3 2 6 16 17 13 13 12
14 14 14 14 15 15 15 15 14 14 14 15 15 14 14 14 14 13 13 13 13 13 13 13 13 14 14 13 10 7 7 6 6 6 5 6 9 16 14 12 8 6 8 4 2 2 3 4 4 3 3 3 5 7 8 8 9 9 8 9 10 11 11 11 10 5 2 3 3 5 5 4 3 3 4 6 8 7 0 6 6 7 9 16 14 11 13 13
14 13 14 14 14 15 15 15 15 15 14 14 15 15 14 14 14 14 14 13 13 13 12 12 12 13 13 12 8 6 6 10 12 8 5 6 9 11 11 10 8 8 7 4 3 3 3 4 5 4 4 4 4 5 6 7 8 10 9 9 8 9 11 10 10 9 5 3 4 6 6 6 6 4 6 7 5 5 3 5 6 5 8 11 11 11 11 12
15 14 14 14 14 14 14 14 15 15 15 15 14 15 14 14 13 14 13 13 13 13 12 11 11 11 11 9 6 6 5 7 7 6 6 6 8 7 8 11 12 10 5 4 5 3 2 3 4 4 3 4 5 4 4 5 4 5 6 6 7 9 11 10 8 7 7 4 3 7 8 7 7 7 7 8 5 5 4 4 6 6 7 7 9 10 10 10
16 15 14 14 14 13 13 14 14 15 15 15 15 15 15 14 14 14 13 13 12 12 12 11 10 11 10 8 7 6 3 3 3 5 6 7 9 9 8 10 14 12 9 7 5 4 4 5 5 4 4 4 5 5 5 5 3 4 8 8 8 11 11 11 10 8 7 6 6 8 9 8 8 7 6 6 6 6 8 6 7 6 6 6 7 8 9 9
17 16 15 15 14 14 14 14 14 15 15 15 15 15 14 14 14 14 13 12 12 12 11 11 11 10 10 8 7 5 1 3 5 5 6 8 9 10 9 10 12 12 10 8 5 6 7 10 10 5 2 2 3 4 5 6 6 6 9 9 9 10 10 10 10 7 6 5 6 8 10 10 9 8 7 5 3 2 5 8 7 7 6 7 7 7 7 7
17 16 16 15 15 15 16 16 16 16 15 14 14 14 15 14 14 14 13 12 12 12 11 11 10 10 10 8 8 9 11 14 13 11 11 12 11 10 9 9 9 9 9 9 7 8 8 10 11 7 3 1 3 3 3 4 5 7 7 7 9 9 11 11 9 7 6 6 5 5 9 11 11 10 8 7 6 4 4 4 5 6 6 7 7 7 6 7
17 16 16 15 16 16 16 16 16 17 16 16 14 14 14 14 14 14 13 12 12 12 11 11 10 10 9 6 9 13 15 17 14 13 14 13 13 12 11 9 8 9 8 8 9 8 8 8 7 8 6 5 4 1 2 3 3 5 5 5 6 7 10 11 9 9 10 8 6 4 7 10 10 11 11 9 9 8 7 5 5 6 5 6 7 6 7 7
16 16 16 15 16 16 16 16 17 17 17 17 16 15 15 15 14 13 13 13 13 12 11 11 10 9 6 6 12 13 12 15 14 13 14 14 14 13 12 10 9 9 8 8 9 7 7 7 6 6 6 6 6 4 4 4 3 3 5 5 4 6 8 7 9 12 12 9 8 8 9 9 8 9 12 12 12 11 10 9 7 6 5 5 6 6 7 7
17 16 16 15 16 16 16 17 17 17 17 18 18 18 17 16 15 14 14 13 12 12 11 12 9 7 5 7 10 10 12 15 16 15 15 15 15 13 12 11 10 9 6 7 7 6 6 7 4 4 4 6 6 6 4 3 4 4 4 4 5 7 6 5 9 13 13 9 11 11 9 7 8 8 8 10 14 14 12 11 10 9 8 7 6 6 6 6
18 17 16 16 16 16 17 17 17 18 18 19 19 19 18 17 16 15 14 13 12 11 9 9 6 3 4 5 4 4 7 10 11 12 11 12 14 13 13 13 12 10 7 9 9 7 7 5 3 3 3 4 5 4 3 3 4 5 5 5 5 7 6 4 8 12 13 10 12 16 10 4 5 9 10 10 12 13 13 12 12 11 10 8 7 6 6 6
19 19 18 17 17 17 17 17 17 18 18 19 21 21 18 16 15 14 14 12 11 9 7 8 6 2 3 3 3 3 3 4 6 8 8 8 10 11 12 11 9 9 9 12 11 7 5 3 2 2 2 3 4 4 4 5 6 5 5 5 5 7 6 4 5 8 12 12 12 15 13 8 6 6 9 12 14 13 11 12 13 11 9 9 7 7 7 7
20 20 19 18 18 18 18 18 18 18 19 20 21 20 18 15 13 13 13 11 8 7 8 7 5 4 2 1 5 5 4 5 7 9 9 8 7 8 9 8 6 7 7 7 7 6 3 2 2 3 3 4 5 6 6 5 5 5 5 5 5 7 7 7 6 5 10 14 12 12 12 12 10 9 10 11 11 11 10 10 12 11 10 8 8 8 8 8
20 20 20 19 19 18 18 18 18 18 19 20 20 19 17 13 11 9 9 8 5 5 5 2 4 4 1 3 5 4 6 9 9 9 7 5 5 6 7 7 6 6 6 4 5 6 4 2 3 4 5 6 7 8 9 6 5 6 6 4 4 5 6 8 9 6 6 9 9 10 11 10 10 11 12 12 10 9 11 10 9 10 9 9 8 7 8 9
19 19 19 19 19 18 18 18 17 17 18 19 19 17 11 7 5 2 3 5 6 7 6 3 5 6 4 3 3 5 7 8 6 4 3 3 5 6 5 5 4 5 5 5 5 6 5 5 6 7 7 7 9 11 11 9 9 10 7 4 4 5 4 5 5 4 3 4 6 8 10 10 10 11 11 12 12 11 12 10 7 6 6 7 8 7 8 8
19 19 19 18 18 18 17 17 17 16 16 16 16 11 6 6 5 3 3 5 9 11 10 8 8 8 8 8 8 7 6 4 6 5 3 3 3 4 3 5 5 5 5 6 5 2 3 6 9 9 9 9 10 10 11 11 12 11 8 5 5 5 4 5 4 1 1 1 3 4 7 9 10 11 9 8 10 12 13 10 7 7 7 6 7 7 7 6
20 19 19 18 18 17 17 16 15 15 15 14 12 8 6 7 6 4 5 6 9 11 10 10 10 9 8 11 12 7 4 4 7 7 4 4 2 2 3 5 6 5 5 6 5 2 3 8 10 9 8 10 10 10 10 12 12 10 7 6 6 5 5 6 7 5 1 1 2 3 5 7 8 9 11 11 9 9 10 10 9 9 9 8 8 7 7 6
21 19 18 18 17 17 16 15 15 15 14 12 11 10 9 9 8 6 5 5 8 10 9 9 8 8 7 10 10 6 5 6 6 7 6 6 3 4 3 3 6 6 5 6 7 6 6 7 9 10 10 10 10 9 10 10 9 8 6 6 6 6 6 4 5 7 6 3 2 3 4 6 7 9 11 13 12 10 9 11 11 10 10 10 9 8 8 8
21 19 18 17 16 16 15 14 14 14 12 11 12 11 10 10 8 6 3 4 6 5 4 5 5 4 4 4 4 7 5 5 4 6 5 9 3 3 4 5 5 5 6 8 9 9 9 7 7 10 11 10 10 9 10 7 6 7 8 8 7 7 8 7 5 7 7 4 1 3 6 6 6 9 11 10 11 13 13 13 13 11 10 10 10 9 9 8
21 19 18 16 15 14 13 13 11 11 10 10 10 8 7 6 4 3 2 3 4 2 1 0 2 1 3 3 2 4 4 5 6 8 5 8 4 3 3 3 3 5 7 9 9 9 11 10 9 10 8 8 9 9 8 6 5 7 8 9 9 9 10 9 8 7 6 5 2 2 5 6 6 10 12 9 10 14 15 15 15 12 11 10 10 10 9 9
20 18 17 16 14 12 10 7 5 6 6 5 5 6 4 3 2 1 2 2 2 1 2 1 1 1 4 1 3 2 3 4 5 8 8 6 4 3 3 2 1 4 6 5 5 4 6 8 9 11 9 7 8 7 8 7 5 6 6 7 9 11 11 11 9 6 4 5 3 4 4 6 5 7 9 9 11 15 14 15 16 14 12 11 10 10 8 8
21 18 17 14 12 9 6 4 5 5 3 2 6 6 4 3 1 1 1 3 2 1 2 1 1 1 1 2 3 3 1 4 3 1 5 4 3 1 3 4 1 3 2 1 3 3 3 5 8 9 10 8 7 6 7 7 6 6 4 4 6 8 10 10 8 6 5 5 5 5 5 7 7 6 7 6 8 11 11 13 15 15 14 13 12 11 10 8
22 18 16 14 11 8 7 6 6 3 2 1 2 3 4 2 1 1 1 3 1 2 2 1 1 1 1 1 3 3 3 5 3 3 6 3 5 2 3 5 5 5 3 1 4 3 1 1 5 7 8 8 7 7 6 6 7 6 3 3 5 6 5 4 4 5 4 4 5 6 5 7 9 7 6 7 9 11 10 11 13 14 15 14 13 12 11 10
23 19 15 13 10 8 8 8 7 4 3 3 1 2 2 1 2 1 2 3 1 2 3 1 1 0 1 1 3 4 4 5 2 0 4 2 5 2 2 3 5 7 5 3 6 6 2 3 1 5 5 5 7 8 7 7 6 2 3 4 5 5 5 2 2 2 3 4 6 8 8 7 9 7 5 7 9 11 10 9 10 12 12 12 13 14 13 12
23 20 14 11 9 8 6 5 7 6 4 4 2 1 2 3 1 0 1 2 1 2 3 0 1 1 2 1 1 2 4 4 3 1 1 0 3 2 0 1 1 4 5 4 7 9 6 2 1 3 4 5 6 7 7 8 7 4 2 4 5 4 4 3 2 2 2 5 8 12 12 9 9 7 5 6 7 8 8 9 10 11 10 9 11 13 14 13
21 20 15 9 8 8 5 3 4 3 3 5 4 3 3 2 1 1 1 0 2 2 2 1 2 1 1 2 1 1 3 4 3 1 1 0 2 1 0 1 2 1 3 4 7 9 7 5 4 3 4 5 7 7 6 7 8 6 2 2 4 3 3 2 2 3 4 7 9 12 13 12 11 7 4 5 8 8 8 8 9 11 11 9 8 10 11 11
18 19 17 13 10 8 6 6 6 1 4 6 5 2 1 1 0 1 2 1 1 2 3 3 2 1 3 4 2 2 2 2 2 2 3 2 1 0 1 1 0 1 3 3 4 6 5 6 7 6 6 5 4 4 4 6 6 5 3 3 3 3 3 3 4 4 5 7 8 8 8 10 11 10 8 10 12 12 9 6 6 7 7 5 4 5 7 7
15 16 17 17 14 11 9 6 3 4 8 7 4 0 2 1 1 1 2 2 1 2 3 4 3 3 4 3 3 3 1 1 1 3 3 1 1 2 3 4 3 1 2 2 4 4 3 5 8 7 5 6 6 4 3 4 4 5 5 4 4 4 4 5 5 4 6 8 7 7 7 5 7 9 11 14 16 15 14 13 11 7 3 3 5 3 4 5
12 13 15 16 14 13 9 4 4 8 11 7 2 1 1 1 1 1 2 2 2 2 2 3 3 4 4 2 1 3 1 1 1 1 0 0 1 2 3 4 5 4 1 2 3 3 3 4 5 6 4 7 9 8 6 5 4 5 5 5 6 5 5 5 5 4 4 5 6 7 7 5 6 6 8 11 13 13 15 16 14 10 6 5 6 6 6 6
8 8 13 16 14 13 9 4 7 8 9 5 1 1 1 0 2 3 3 2 2 2 3 3 3 2 4 2 2 0 2 1 0 0 2 2 2 2 2 3 5 5 1 1 2 2 4 5 5 6 5 6 9 10 9 7 6 5 3 4 7 7 6 5 4 4 2 3 4 4 3 4 4 7 7 7 8 9 12 13 12 13 11 8 7 8 9 8
6 5 12 17 15 14 8 5 8 7 7 3 1 1 1 1 2 2 2 2 3 4 5 4 2 1 3 2 1 2 2 1 2 2 2 3 3 4 2 2 2 6 5 3 1 1 3 5 3 5 7 6 6 5 7 8 5 3 4 5 7 4 4 5 6 6 5 6 5 3 4 5 5 9 9 10 11 7 7 8 8 11 11 10 9 9 9 8
7 5 12 18 18 14 6 6 8 6 4 1 1 1 1 1 2 3 3 4 4 4 5 3 1 1 2 3 3 2 3 2 3 2 2 2 2 3 3 2 2 5 6 3 2 2 2 5 5 6 11 8 1 3 4 6 3 3 4 4 3 1 1 2 4 5 6 8 6 6 8 6 4 5 5 9 12 10 9 9 8 8 8 8 9 8 8 8
8 2 11 17 18 15 6 8 8 4 2 1 1 2 0 0 2 4 4 5 4 4 4 2 1 2 3 3 4 4 4 0 2 1 2 3 1 2 2 1 2 4 2 3 1 0 1 4 5 2 7 6 4 4 5 5 5 6 5 3 0 1 3 3 2 4 6 7 6 8 9 7 6 5 4 7 9 8 8 9 9 10 8 7 8 6 5 5
9 2 6 13 15 12 6 9 7 1 1 1 2 2 1 1 2 2 3 4 4 3 3 2 1 2 3 4 5 5 2 1 3 1 0 2 2 2 1 2 1 1 2 7 2 2 2 1 3 2 2 4 3 1 3 4 5 4 4 4 2 3 4 3 2 4 6 6 6 7 7 5 6 6 8 12 12 11 10 8 9 10 8 5 3 1 3 3
6 0 3 9 11 9 5 5 3 1 0 2 2 1 1 1 3 2 2 2 3 2 2 3 4 2 3 4 5 4 2 3 4 1 1 2 4 3 1 0 3 5 3 4 1 2 1 1 3 2 2 1 1 3 3 4 4 1 2 5 4 3 3 2 2 2 3 4 5 6 6 5 4 5 8 12 12 9 9 6 3 2 4 5 5 4 2 1
4 1 2 6 8 6 2 1 0 1 1 3 2 1 0 2 3 4 3 2 1 1 1 3 5 4 3 4 4 4 3 3 3 2 2 2 3 3 2 4 3 2 2 1 0 1 1 1 2 4 4 3 5 5 3 5 6 3 3 4 5 5 4 5 5 4 2 3 4 5 6 5 3 2 2 4 4 4 4 3 3 4 5 5 4 2 2 3
2 2 2 6 6 5 3 2 1 1 1 2 1 1 2 3 2 3 3 3 3 2 0 1 4 4 3 3 3 4 3 3 3 3 3 3 3 4 3 4 3 2 3 3 2 1 1 0 2 5 5 6 10 10 4 2 4 3 2 3 3 3 3 5 6 4 3 5 5 5 6 5 3 3 4 4 3 3 4 4 4 4 3 3 3 2 3 2
2 2 3 6 6 4 3 1 1 1 2 1 1 2 3 3 2 2 2 2 3 2 0 1 2 3 3 3 3 4 4 3 5 5 4 5 5 4 5 3 2 1 2 3 2 0 0 0 1 4 5 7 10 8 2 2 1 1 3 4 4 5 7 6 6 5 3 4 5 6 7 6 5 6 5 5 5 3 2 2 3 4 4 3 3 3 2 1
1 1 1 5 6 3 2 1 1 2 2 1 1 1 2 2 2 2 2 1 1 2 2 2 2 3 2 3 3 4 5 3 4 4 4 5 3 2 4 3 1 1 2 3 2 1 2 0 0 3 5 6 5 2 2 3 2 0 3 5 7 9 11 8 7 5 3 6 8 7 7 5 4 6 5 4 6 4 2 2 2 2 2 0 1 1 3 3
1 0 1 3 4 2 1 2 2 2 3 3 2 1 1 1 2 3 3 3 3 2 2 3 3 3 3 3 3 3 4 3 3 4 4 4 3 2 4 4 1 3 4 2 4 3 2 1 1 1 3 5 4 3 2 2 2 2 4 7 9 11 11 9 8 6 5 7 10 8 7 6 7 8 7 5 6 4 2 2 3 4 4 3 3 3 4 4
1 0 0 0 2 1 1 1 1 2 3 3 3 3 3 3 3 3 2 3 3 2 3 4 4 5 3 3 3 4 5 6 5 4 4 4 4 4 5 6 5 6 8 3 5 4 1 2 4 4 5 7 7 8 7 4 5 7 9 10 10 10 11 10 8 8 7 7 8 8 8 10 13 13 11 9 9 9 6 5 4 5 6 6 6 5 4 4
1 1 1 1 1 0 2 2 3 2 3 3 3 3 4 5 5 2 2 2 1 1 3 4 1 2 4 4 4 4 5 5 6 6 7 7 6 6 7 9 8 9 11 6 4 3 1 4 5 7 9 11 11 13 14 9 8 11 12 13 13 11 11 10 10 12 10 8 9 10 9 11 13 13 11 11 12 12 10 9 8 7 7 7 5 4 5 6
1 1 1 0 1 1 2 2 4 4 4 3 2 2 4 5 5 3 0 1 2 1 1 2 3 4 6 6 6 5 5 5 5 6 7 6 5 5 6 6 7 8 8 3 4 4 2 5 5 6 10 13 12 14 14 10 10 12 12 14 15 14 13 12 13 14 13 11 11 12 12 12 12 13 14 13 13 12 10 10 10 9 9 6 5 4 5 6
2 2 1 1 1 2 1 1 3 4 4 3 2 2 3 5 5 2 0 1 2 1 2 3 4 4 5 6 5 5 5 5 5 5 5 5 6 5 4 5 5 3 2 1 1 2 2 3 4 5 9 12 12 13 13 12 11 13 14 15 15 15 15 14 14 15 16 15 15 16 17 15 12 15 18 17 14 13 11 11 11 11 10 6 6 6 6 7
2 1 2 2 2 2 2 2 2 3 3 2 3 3 3 5 5 4 1 2 4 2 3 4 6 5 6 6 5 6 7 7 7 7 7 7 6 5 4 4 2 2 3 1 2 0 2 3 3 2 5 10 13 12 11 11 12 13 14 15 15 16 16 15 14 13 14 15 16 18 19 15 12 14 18 17 15 13 14 15 15 13 11 8 8 8 7 7
5 3 3 2 2 1 1 2 2 3 3 2 2 2 3 4 6 8 6 5 6 5 2 4 7 6 5 7 7 7 8 8 9 9 8 7 7 6 5 3 3 4 3 2 1 1 2 2 2 1 3 10 12 8 7 9 9 11 14 17 18 16 13 13 12 11 12 14 15 15 14 12 11 14 16 17 15 14 15 16 15 13 13 13 12 9 8 8
7 4 3 3 2 1 1 2 3 3 2 1 2 4 5 5 7 8 6 4 3 4 5 6 8 6 5 7 7 7 7 8 9 9 8 8 9 9 8 8 8 7 5 3 2 3 4 2 3 2 2 10 13 7 5 6 6 8 13 15 15 14 13 13 13 12 14 13 11 11 11 11 13 14 15 17 16 16 16 15 14 13 13 14 13 11 9 9
Wind_Direction
346 344 342 340 339 338 337 336 336 335 336 334 332 333 331 330 327 326 328 329 330 331 331 330 328 328 325 324 322 324 330 325 314 303 292 278 272 285 349 2 352 345 332 311 293 292 308 306 320 341 315 262 231 216 235 232 220 229 216 229 237 237 243 249 252 252 108 120 146 144 238 266 160 166 152 102 242 221 167 170 136 97 89 106 119 124 131 141
344 342 341 339 337 336 336 335 335 336 336 335 335 335 333 332 328 325 326 326 328 329 331 330 327 327 325 323 323 327 329 319 301 292 280 252 234 273 359 355 349 349 341 307 286 285 293 303 340 348 323 249 231 214 217 202 189 216 227 230 230 238 252 262 264 264 326 321 33 119 157 296 258 159 143 165 207 199 201 188 159 133 110 117 127 130 137 147
342 341 339 338 337 336 336 335 335 335 335 336 335 335 334 334 332 328 325 326 326 326 329 330 327 327 325 323 324 331 328 311 296 285 233 205 195 30 355 346 348 349 327 298 296 291 292 295 314 327 314 274 246 218 212 188 191 213 221 238 232 239 255 269 277 272 242 301 311 231 115 357 312 358 133 203 226 201 205 198 178 176 153 146 145 141 147 155
341 340 338 338 337 336 336 335 335 335 335 335 334 334 334 333 331 329 327 327 327 327 329 330 330 328 325 323 324 332 324 302 298 81 146 164 149 14 352 346 346 348 321 286 281 275 276 274 267 275 295 289 257 236 225 199 201 209 212 238 241 250 258 260 271 282 263 254 271 287 101 142 285 283 187 208 252 233 216 207 190 192 171 155 158 155 156 160
340 339 339 338 337 337 336 335 335 334 334 334 334 333 332 332 330 330 330 328 327 327 329 330 331 329 323 322 325 329 317 287 343 89 140 158 61 353 348 345 342 359 342 284 265 263 257 262 254 237 242 268 261 251 229 210 215 233 233 240 243 256 266 262 268 326 314 261 246 300 261 235 228 231 247 235 245 251 257 232 188 188 178 162 161 161 162 165
339 339 338 337 337 336 336 336 335 333 334 334 333 332 331 331 330 332 332 330 328 328 330 329 332 331 322 321 324 314 288 248 78 61 166 184 339 345 348 348 349 358 327 283 255 252 244 251 239 224 217 224 244 246 238 217 217 243 250 246 249 254 260 274 286 26 13 324 350 279 273 262 183 206 242 234 245 250 39 29 61 83 139 153 155 155 164 170
337 336 336 335 334 333 335 336 336 334 333 333 332 332 332 330 331 333 332 331 330 330 330 328 332 331 322 326 321 282 251 267 294 323 291 249 330 346 344 345 354 337 313 295 260 236 240 240 223 237 234 220 231 238 252 243 229 240 247 245 252 257 255 271 283 288 356 335 304 294 305 288 226 225 241 230 239 245 315 68 62 48 98 133 146 158 169 173
339 337 335 333 332 332 333 332 333 333 332 332 331 332 331 330 332 332 330 330 330 329 328 328 330 324 321 331 319 265 237 260 281 316 336 313 337 343 337 352 359 328 313 326 334 289 270 244 233 253 237 238 250 237 262 272 250 245 250 247 249 261 259 257 268 281 286 272 282 289 287 274 257 266 265 249 241 245 231 111 103 88 114 135 150 165 174 176
348 346 342 338 333 329 329 329 329 329 330 330 328 329 330 330 330 328 327 328 328 327 326 324 322 315 315 318 297 280 255 242 278 343 14 357 351 336 342 6 354 336 334 341 339 310 276 238 241 260 255 270 289 282 284 282 256 266 295 294 275 272 271 265 264 281 290 274 264 270 261 259 263 270 265 252 245 251 240 150 135 135 145 158 161 171 181 182
354 354 352 347 341 335 332 329 326 325 326 326 326 325 326 327 325 323 324 325 326 325 323 321 318 313 311 298 270 267 257 224 286 340 9 9 358 343 348 356 344 346 349 332 336 336 322 318 313 306 301 293 283 282 280 273 295 337 328 323 306 286 275 271 262 249 261 270 263 263 261 259 257 255 249 235 229 232 230 202 159 157 175 180 175 178 181 186
355 356 356 355 354 350 345 339 333 328 324 321 321 321 320 320 319 320 320 320 323 324 322 318 316 311 304 286 260 243 245 346 334 332 346 345 337 336 337 334 336 343 338 325 340 0 343 332 332 315 277 284 261 254 253 264 291 309 308 308 303 296 284 270 265 251 248 256 250 260 266 262 255 249 241 238 269 283 230 218 181 173 189 192 191 184 180 192
353 353 353 354 355 355 351 347 343 337 332 324 317 314 314 313 314 315 314 318 319 320 320 314 314 311 301 282 257 260 279 304 317 309 307 312 309 311 313 312 320 325 328 326 330 345 336 331 330 294 253 313 273 242 255 279 280 279 288 297 293 292 280 262 257 252 249 249 244 272 274 254 241 239 238 235 255 287 273 243 213 202 198 195 199 191 184 191
347 348 348 349 349 349 348 346 344 341 339 332 322 310 305 304 308 310 308 313 316 318 318 312 310 304 296 282 272 272 276 289 303 303 296 297 291 289 293 296 302 302 309 311 306 317 317 320 321 288 282 295 273 256 312 292 259 258 255 261 281 282 264 250 246 240 238 237 222 240 262 246 234 228 228 232 235 238 239 232 227 229 212 198 203 198 188 186
341 342 343 342 342 342 342 342 340 337 336 334 329 317 305 297 298 302 301 305 311 314 314 310 304 297 289 274 279 278 273 280 288 289 286 285 285 283 279 275 274 277 282 290 294 307 313 311 303 289 290 275 281 329 314 264 233 242 241 227 230 253 253 233 228 231 231 220 195 213 249 247 241 228 215 218 226 228 229 222 214 220 220 211 207 202 190 182
336 337 336 335 334 335 335 336 335 333 331 329 328 322 314 300 293 294 295 300 304 306 311 305 288 276 283 276 278 273 261 268 275 277 274 271 275 280 276 270 271 270 275 294 302 310 308 305 288 276 277 239 253 299 296 263 237 216 230 226 203 231 258 242 223 224 225 214 186 205 246 247 237 248 235 219 217 218 224 227 217 212 214 212 208 204 193 183
332 331 330 329 328 328 329 330 331 329 327 325 324 324 318 306 295 289 291 295 296 301 307 298 278 237 283 294 297 277 250 257 274 282 277 266 265 268 270 277 286 284 283 290 294 301 299 295 272 265 277 234 222 241 251 260 240 209 219 230 215 225 242 245 228 220 222 219 197 205 231 247 224 235 245 245 232 218 217 225 224 217 213 209 204 199 194 188
327 327 326 325 324 325 324 325 326 326 324 321 321 322 318 308 296 286 289 291 293 296 276 280 303 268 248 287 307 303 276 271 293 302 303 288 273 271 271 270 278 278 278 283 276 270 276 266 238 241 238 234 226 212 213 229 224 210 218 234 244 245 251 248 225 213 216 220 210 211 224 237 249 251 240 242 243 236 223 219 224 220 216 211 200 195 192 191
324 324 323 322 321 321 321 323 323 323 321 319 321 323 319 310 295 284 287 289 286 277 257 260 290 279 224 237 290 306 324 322 320 303 295 296 288 281 278 268 267 267 265 275 258 230 231 219 228 244 218 212 223 213 209 219 220 213 215 227 238 242 257 264 262 239 216 219 219 218 226 229 241 265 266 257 251 253 247 229 223 218 218 217 200 198 194 191
322 321 320 320 319 318 319 320 320 321 319 319 325 326 317 302 283 269 270 273 261 259 274 237 213 272 10 178 247 286 314 316 313 287 268 277 295 282 262 252 255 255 248 249 209 190 199 212 221 234 227 214 214 217 222 237 253 251 246 241 240 237 237 243 254 259 226 222 227 228 238 237 231 236 248 260 263 264 266 253 227 210 217 226 213 204 196 193
321 319 318 316 315 315 315 316 316 318 318 320 327 326 317 307 294 266 254 257 244 247 276 282 237 275 300 225 264 318 314 301 284 279 275 258 291 293 255 227 232 232 236 249 213 184 195 217 223 224 229 228 223 224 231 246 259 267 280 285 278 274 257 246 237 218 210 229 230 233 249 254 250 244 233 236 246 252 259 261 248 227 225 231 227 219 207 199
323 319 315 313 312 312 311 313 314 313 314 316 320 318 323 344 338 343 326 277 255 249 251 258 263 277 284 284 301 316 319 285 253 278 294 255 285 302 224 184 214 224 210 239 253 224 209 226 227 223 229 241 243 239 236 243 252 258 273 279 275 275 272 293 309 155 142 250 247 254 265 258 257 268 263 240 233 240 247 249 249 252 253 252 248 243 233 219
327 320 316 313 310 310 309 309 308 307 307 307 304 294 308 340 337 318 313 293 281 275 263 253 253 264 273 275 277 282 293 271 268 274 238 209 224 242 208 175 205 229 206 218 241 241 235 241 241 237 239 243 247 255 250 244 247 248 255 261 261 267 274 291 296 286 273 92 283 287 282 272 266 271 277 272 256 246 246 243 236 238 246 253 255 256 256 250
327 322 319 315 311 311 309 307 303 299 297 294 286 283 302 323 326 315 294 287 291 278 260 245 241 249 255 262 254 228 240 252 267 274 210 177 202 217 243 242 220 234 223 209 217 220 230 237 236 238 246 250 247 252 255 251 247 240 239 248 248 254 267 273 268 266 257 227 257 282 266 266 271 267 264 266 270 272 265 255 244 234 234 244 249 250 252 249
328 324 320 317 315 312 310 307 299 290 284 278 274 282 305 313 313 323 301 277 287 273 256 242 236 251 270 282 226 189 227 250 260 281 189 164 217 228 222 259 251 245 233 222 224 228 243 249 233 227 228 241 246 241 246 249 249 241 233 242 252 250 253 257 265 278 277 275 326 319 284 263 246 253 254 249 256 262 261 259 253 241 232 239 249 245 242 245
329 325 321 319 318 315 314 308 295 285 274 269 276 292 317 319 313 329 303 273 272 269 4 315 191 296 323 324 173 186 260 263 248 267 216 172 226 249 217 246 245 244 240 236 237 236 246 253 258 256 236 227 237 237 238 238 248 249 232 231 244 256 264 263 265 276 279 272 230 191 271 268 223 231 243 233 230 240 242 245 248 244 231 228 239 241 234 238
333 327 322 319 317 316 316 311 314 314 289 290 333 337 325 310 312 325 286 277 273 246 69 71 179 300 316 249 169 218 282 282 252 243 235 217 239 272 262 244 198 245 254 252 257 256 253 253 257 268 271 252 242 237 233 233 248 253 237 237 241 243 252 259 264 266 260 266 240 188 235 269 248 230 239 232 226 232 232 234 239 242 236 225 229 237 231 229
338 329 323 319 315 314 309 310 340 339 294 342 357 333 313 305 323 42 287 257 276 354 67 2 272 255 317 112 171 204 276 330 349 226 251 238 200 236 257 246 252 244 250 298 255 244 244 249 243 248 260 264 255 242 228 221 237 250 252 284 277 253 241 245 253 252 256 280 279 256 255 275 271 245 247 258 249 243 233 230 233 237 240 233 227 232 231 224
342 332 323 319 310 294 277 286 309 298 225 291 338 314 321 343 113 96 292 263 264 350 20 23 10 172 168 116 204 234 331 338 353 358 319 271 172 168 253 253 279 268 245 194 236 261 58 204 244 250 246 242 242 246 243 235 240 252 290 326 296 289 284 262 248 254 281 293 268 250 244 264 268 248 237 255 260 258 248 238 235 233 235 233 228 229 232 229
346 339 329 321 312 297 279 271 272 264 251 262 262 322 329 117 109 94 281 274 243 348 350 21 32 118 154 155 213 246 301 324 327 315 317 273 177 198 273 260 313 310 289 228 237 272 2 87 1 310 279 246 247 248 243 250 251 256 342 321 290 290 305 297 230 274 303 276 246 236 223 242 266 255 231 231 236 244 247 248 247 238 232 225 220 223 229 231
354 352 342 329 327 330 313 271 267 276 266 238 229 8 123 143 97 60 228 276 48 347 323 280 47 86 166 209 199 241 272 299 311 256 249 227 170 181 278 164 357 329 306 267 255 264 273 264 247 288 281 283 293 279 255 254 259 258 287 304 303 286 272 265 163 140 269 254 238 232 225 234 260 251 224 233 240 236 232 234 241 243 241 229 217 216 220 225
1 4 1 356 347 335 336 2 342 306 224 188 157 133 134 137 304 263 202 295 50 339 295 121 74 103 183 323 8 272 282 292 304 296 251 28 132 162 275 217 193 256 281 271 267 263 262 266 252 240 256 289 314 310 292 274 265 260 245 265 289 268 243 249 179 171 229 244 237 230 221 228 249 248 211 245 258 247 234 225 228 233 235 236 226 215 212 212
4 11 14 17 8 353 0 15 9 6 181 163 139 145 198 154 142 252 257 294 50 336 339 22 35 8 348 352 359 330 325 305 298 344 333 325 14 275 232 215 177 288 262 254 271 265 245 231 228 232 236 247 284 298 290 278 260 246 234 230 256 246 224 224 208 204 231 246 246 234 215 220 247 258 251 258 262 260 264 270 263 248 234 247 255 217 196 189
10 17 20 22 21 17 12 4 18 135 152 150 143 286 293 175 142 260 291 357 345 311 355 5 0 1 342 336 348 348 347 272 342 28 10 342 298 276 232 218 202 215 264 306 322 303 263 222 205 214 221 198 206 232 241 247 238 227 219 211 222 230 236 234 223 223 239 253 246 215 211 228 250 252 240 243 252 256 263 268 271 269 246 263 281 239 194 195
20 24 23 21 23 18 7 17 105 141 149 145 143 8 44 120 47 6 25 36 288 280 24 348 336 353 318 286 342 343 331 291 356 52 348 292 268 271 243 222 198 185 232 306 301 289 283 275 205 196 202 176 190 211 223 249 257 232 218 216 221 221 233 236 233 232 236 269 250 195 195 216 219 234 227 225 234 236 242 247 248 247 231 226 247 241 226 221
21 25 24 19 20 16 16 90 120 137 145 134 137 173 121 84 17 15 17 6 286 325 359 298 296 327 299 260 188 43 34 354 348 339 260 243 254 252 233 226 193 175 163 256 264 246 244 270 253 227 222 190 195 206 208 233 259 241 218 230 229 222 231 246 263 263 256 296 270 198 216 234 244 285 279 254 247 227 227 235 230 232 232 225 232 237 234 227
4 7 24 20 17 13 15 125 132 138 147 137 151 158 44 23 10 1 345 325 305 341 333 291 276 289 300 314 200 130 73 308 306 331 274 237 256 255 232 276 209 167 173 191 275 303 231 251 297 307 286 243 217 220 206 212 243 243 202 224 239 230 227 249 270 269 259 264 254 216 253 270 291 297 280 264 269 253 230 237 230 228 229 227 231 233 230 222
350 16 35 21 14 11 19 142 138 141 161 170 114 83 85 114 1 340 340 336 311 328 340 334 11 336 325 346 326 32 71 326 323 332 287 275 256 222 197 259 254 193 198 204 295 339 293 284 306 314 290 272 307 352 267 234 258 267 230 236 267 1 135 225 259 252 242 254 246 224 238 244 248 266 248 243 254 248 230 229 235 235 226 228 238 238 230 216
315 7 44 21 11 13 41 137 135 136 171 160 103 76 74 195 359 340 344 347 325 334 346 329 341 346 352 345 326 7 72 55 332 358 307 292 249 119 105 263 237 224 207 89 50 292 103 292 295 296 286 295 28 14 298 252 217 225 272 314 36 247 230 192 222 236 226 243 252 238 238 233 231 253 282 271 263 258 237 218 222 228 221 227 242 249 247 228
295 274 39 12 7 20 62 128 128 133 173 83 46 44 18 306 318 318 331 338 323 324 326 315 355 354 346 340 325 343 46 241 306 347 75 283 276 58 47 253 264 293 105 99 104 271 112 248 292 24 10 349 18 336 274 263 212 207 301 315 171 222 243 201 221 244 233 242 252 247 240 232 229 238 259 266 268 274 269 252 238 226 207 201 207 52 23 23
307 237 46 3 6 32 76 132 121 323 206 68 31 41 74 297 305 313 319 339 331 313 320 341 349 338 329 331 312 306 314 305 303 279 154 286 291 313 318 253 17 13 52 99 116 294 48 231 274 329 4 336 279 226 229 259 253 197 265 256 235 244 273 288 268 242 242 253 248 247 247 237 226 227 243 254 261 269 270 270 264 195 136 120 109 91 62 62
308 105 55 1 9 35 38 237 315 350 111 86 79 113 20 294 307 323 321 322 299 274 333 333 314 305 308 307 306 313 317 310 304 268 237 270 282 307 26 88 74 359 1 19 354 175 173 236 274 304 309 282 264 260 264 276 274 248 190 229 248 246 260 273 251 220 213 241 241 254 260 250 240 260 282 281 301 324 322 348 36 71 98 111 118 130 143 141
320 77 359 345 0 11 338 273 242 344 67 72 78 273 323 310 302 337 348 333 291 250 50 333 289 294 288 279 296 310 308 299 293 275 263 283 274 284 347 88 134 248 289 301 297 138 115 278 260 275 275 265 264 263 259 276 283 274 216 208 224 242 258 259 252 252 246 242 248 257 259 259 276 319 353 353 338 342 345 355 10 18 48 83 81 66 92 119
42 57 310 337 359 346 316 234 167 40 74 53 315 286 326 326 318 346 356 331 295 268 206 222 251 262 281 305 313 304 314 289 254 247 251 274 271 284 327 32 114 263 290 278 285 13 315 237 251 279 274 267 266 262 263 62 55 276 247 227 214 230 241 240 253 277 285 261 260 255 251 252 265 282 309 337 322 317 3 5 355 348 355 31 50 53 79 138
33 40 299 349 358 327 306 358 23 29 63 21 290 249 276 284 288 302 300 287 272 299 319 272 236 216 247 314 317 302 323 304 251 261 263 269 271 244 277 289 164 189 265 296 352 338 275 237 73 312 306 304 303 309 12 24 40 315 272 269 260 249 245 242 245 253 256 255 255 254 255 256 265 270 282 319 314 317 17 11 325 307 293 171 105 156 180 180
290 189 146 344 343 337 19 34 1 2 24 2 331 333 349 283 232 248 281 285 245 258 300 285 299 302 285 311 313 288 292 270 268 305 284 275 306 283 277 307 305 249 279 343 95 129 266 266 171 263 284 289 294 290 320 359 337 294 274 273 274 263 255 252 248 242 237 246 249 248 255 269 277 275 279 293 290 283 280 261 260 272 268 245 223 213 193 186
284 321 129 299 331 11 108 72 352 331 9 4 345 5 18 347 285 246 255 270 238 217 248 261 317 332 286 264 272 262 257 244 243 271 279 282 298 295 301 309 294 275 283 276 134 137 278 252 215 218 235 250 260 267 281 311 302 284 277 276 277 270 262 258 253 248 245 247 248 244 254 272 273 270 274 281 280 277 271 252 235 244 249 243 237 222 202 203
298 337 35 16 301 168 120 69 24 353 355 356 346 358 354 328 316 301 179 204 255 320 260 238 237 300 268 272 282 264 262 260 250 261 275 276 273 273 279 281 273 268 270 252 154 133 269 255 229 224 239 251 257 267 277 284 277 274 279 281 277 272 268 259 251 253 253 253 252 243 241 257 268 274 279 277 273 273 275 273 265 255 248 238 221 203 210 216
31 33 81 215 273 68 81 47 12 347 331 327 321 323 315 309 320 334 195 218 281 306 285 238 213 234 262 285 298 292 288 288 272 264 269 272 277 286 288 281 275 271 266 235 141 140 218 257 244 228 246 256 254 261 270 272 268 269 272 274 275 274 271 262 256 256 252 250 257 253 241 239 254 270 271 269 270 273 276 278 277 276 273 249 206 208 244 239
35 54 82 248 296 7 358 335 345 328 309 305 288 265 280 294 315 339 102 290 297 231 191 249 262 268 277 282 287 290 291 292 284 276 289 301 300 302 303 292 292 319 348 320 203 156 183 253 255 242 261 267 259 260 266 268 268 268 265 264 266 268 266 260 257 254 249 249 256 259 254 245 243 253 257 260 265 270 275 277 279 284 282 249 216 235 251 248
14 30 18 321 288 291 237 227 276 284 284 278 251 241 253 280 319 348 1 290 295 272 215 253 288 313 309 296 284 269 270 281 285 285 297 307 304 301 296 278 285 8 27 338 312 39 188 260 277 261 277 276 266 260 260 257 258 264 269 268 264 263 265 264 259 254 251 251 249 250 254 254 246 248 255 257 257 259 265 266 268 274 272 253 238 238 235 240
10 353 347 320 293 308 242 223 236 267 282 248 230 285 302 310 339 343 325 289 276 282 301 308 310 315 307 298 289 278 284 294 293 291 292 289 285 285 284 272 281 306 294 263 282 196 195 267 293 255 277 279 274 271 267 268 271 273 272 268 260 257 257 257 253 244 240 243 243 243 247 251 248 248 254 258 258 258 261 261 259 258 256 254 252 245 235 237
17 1 338 315 294 303 279 265 254 255 278 349 349 346 339 331 337 333 317 303 300 323 344 323 307 308 305 299 298 304 312 306 293 291 287 276 273 272 270 269 269 269 264 260 250 202 191 237 272 242 257 275 278 285 295 302 304 277 263 260 257 252 249 250 252 246 236 233 236 238 234 237 244 249 256 261 260 255 252 254 254 250 248 250 253 248 234 227